GW7270 Weather Reports


Display with metric or nautical units.
time (UTC)temp
F
wind
direction
speed
MPH
gust
MPH
rain 1hr
in
rain 24hr
in
rain mn
in
humidity
%
barometer
mb
20260503220332 42 198 5.0 12.0 0.00 0.00 0.00 92 1003.3
20260503215832 42 204 6.0 12.0 0.00 0.00 0.00 91 1003.2
20260503215332 42 198 4.0 12.0 0.00 0.00 0.00 91 1003.5
20260503214316 42 198 5.0 12.0 0.00 0.00 0.00 91 1004.1
20260503213815 42 206 5.0 12.0 0.00 0.00 0.00 91 1003.4
20260503213314 42 190 5.0 12.0 0.00 0.00 0.00 92 1003.4
20260503212814 42 189 5.0 12.0 0.00 0.00 0.00 92 1003.3
20260503211757 42 209 5.0 12.0 0.00 0.00 0.00 94 1003.7
20260503211257 41 197 4.0 12.0 0.00 0.00 0.00 95 1003.4
20260503210756 41 191 5.0 12.0 0.00 0.00 0.00 95 1003.7
20260503210255 41 180 5.0 12.0 0.00 0.00 0.00 95 1003.8
20260503205239 41 195 5.0 12.0 0.00 0.00 0.00 95 1004.2
20260503204739 41 181 4.0 12.0 0.00 0.00 0.00 94 1004.0
20260503204238 41 181 4.0 12.0 0.00 0.00 0.00 94 1004.1
20260503203737 41 189 4.0 12.0 0.00 0.00 0.00 94 1004.2
20260503202721 41 177 5.0 12.0 0.00 0.00 0.00 93 1004.1
20260503202220 42 192 5.0 12.0 0.00 0.00 0.00 93 1004.2
20260503201719 42 195 4.0 12.0 0.00 0.00 0.00 94 1004.1
20260503200702 41 219 1.0 12.0 0.00 0.00 0.00 95 1004.5
20260503200202 41 198 3.0 12.0 0.00 0.00 0.00 95 1004.3
20260503195146 40 178 2.0 12.0 0.00 0.00 0.00 94 1004.5
20260503194645 40 194 3.0 12.0 0.00 0.00 0.00 94 1004.8
20260503194145 40 197 3.0 12.0 0.00 0.00 0.00 94 1004.9
20260503193645 40 215 2.0 12.0 0.00 0.00 0.00 93 1005.0
20260503193145 39 218 2.0 12.0 0.00 0.00 0.00 93 1004.7
20260503192644 40 244 1.0 12.0 0.00 0.00 0.00 92 1005.0
20260503192144 40 215 1.0 12.0 0.00 0.00 0.00 91 1005.2
20260503191643 40 232 1.0 12.0 0.00 0.00 0.00 90 1005.2
20260503191142 40 210 1.0 12.0 0.00 0.00 0.00 90 1005.5
20260503190642 40 209 3.0 12.0 0.00 0.00 0.00 89 1005.5
20260503190141 40 205 4.0 12.0 0.00 0.00 0.00 88 1005.5
20260503185641 40 203 2.0 12.0 0.00 0.00 0.00 88 1005.5
20260503185141 40 177 4.0 12.0 0.00 0.00 0.00 88 1005.2
20260503184640 40 181 4.0 12.0 0.00 0.00 0.00 88 1005.3
20260503184140 40 169 5.0 12.0 0.00 0.00 0.00 87 1005.1
20260503183640 40 173 5.0 12.0 0.00 0.00 0.00 86 1005.4
20260503183140 40 185 5.0 12.0 0.00 0.00 0.00 86 1005.6
20260503182639 40 182 4.0 12.0 0.00 0.00 0.00 86 1005.5
20260503182139 40 153 5.0 12.0 0.00 0.00 0.00 85 1005.5
20260503180607 40 168 4.0 12.0 0.00 0.00 0.00 85 1006.2
20260503180106 40 198 4.0 12.0 0.00 0.00 0.00 85 1006.5
20260503175606 40 166 7.0 14.0 0.00 0.00 0.00 84 1006.8
20260503175106 40 180 5.0 14.0 0.00 0.00 0.00 84 1006.7
20260503174605 40 171 6.0 14.0 0.00 0.00 0.00 85 1006.8
20260503174105 40 176 5.0 14.0 0.00 0.00 0.00 85 1006.8
20260503172535 40 167 5.0 14.0 0.00 0.00 0.00 81 1007.3
20260503172035 40 171 5.0 14.0 0.00 0.00 0.00 81 1007.2
20260503171534 41 175 6.0 14.0 0.00 0.00 0.00 80 1007.4
20260503171033 41 179 5.0 13.0 0.00 0.00 0.00 79 1007.4
20260503170532 41 182 5.0 13.0 0.00 0.00 0.00 79 1007.7
20260503150416 43 194 7.0 14.0 0.00 0.00 0.00 76 1009.7
20260503131304 41 171 4.0 12.0 0.00 0.00 0.00 82 1010.4
20260503130804 40 192 6.0 12.0 0.00 0.00 0.00 82 1010.5
20260503130304 40 177 5.0 12.0 0.00 0.00 0.00 82 1010.3
20260503110711 35 175 1.0 12.0 0.00 0.00 0.00 96 1010.7
20260503110211 35 175 0.0 12.0 0.00 0.00 0.00 97 1010.6
20260503100204 33 218 0.0 12.0 0.00 0.00 0.00 93 1011.1
20260503090130 34 235 0.0 12.0 0.00 0.00 0.00 90 1011.8
20260503081557 35 237 0.0 12.0 0.00 0.00 0.00 85 1012.9
20260503081056 35 237 0.0 12.0 0.00 0.00 0.00 84 1012.9
20260503080556 36 228 0.0 12.0 0.00 0.00 0.00 83 1013.0
20260503072538 36 223 1.0 12.0 0.00 0.00 0.00 79 1012.8
20260503072037 36 224 0.0 12.0 0.00 0.00 0.00 79 1013.2
20260503071537 36 206 0.0 12.0 0.00 0.00 0.00 78 1013.0
20260503071038 36 233 0.0 12.0 0.00 0.00 0.00 78 1012.9
20260503070538 36 265 0.0 12.0 0.00 0.00 0.00 77 1013.2
20260503054949 36 262 0.0 12.0 0.00 0.00 0.00 79 1013.8
20260503054448 36 249 0.0 12.0 0.00 0.00 0.00 79 1013.8
20260503053947 36 269 0.0 12.0 0.00 0.00 0.00 79 1013.9
20260503053447 36 281 1.0 12.0 0.00 0.00 0.00 79 1014.0
20260503052947 36 218 0.0 12.0 0.00 0.00 0.00 80 1013.9
20260503052447 36 264 1.0 12.0 0.00 0.00 0.00 80 1014.0
20260503051946 36 249 1.0 12.0 0.00 0.00 0.00 80 1014.2
20260503051446 36 235 0.0 12.0 0.00 0.00 0.00 80 1014.0
20260503050946 36 253 1.0 12.0 0.00 0.00 0.00 80 1014.2
20260503050445 36 279 0.0 12.0 0.00 0.00 0.00 81 1014.2
20260503045945 36 253 1.0 12.0 0.00 0.00 0.00 81 1014.0
20260503044928 36 258 1.0 12.0 0.00 0.00 0.00 81 1014.3
20260503044428 36 242 1.0 12.0 0.00 0.00 0.00 81 1014.6
20260503043928 36 281 1.0 12.0 0.00 0.00 0.00 81 1014.3
20260503042913 36 274 0.0 12.0 0.00 0.00 0.00 81 1014.4
20260503042412 36 256 1.0 12.0 0.00 0.00 0.00 81 1014.6
20260503041911 36 276 0.0 12.0 0.00 0.00 0.00 81 1014.8
20260503041411 36 165 1.0 12.0 0.00 0.00 0.00 80 1014.7
20260503040910 36 264 2.0 12.0 0.00 0.00 0.00 80 1014.7
20260503040410 36 250 0.0 12.0 0.00 0.00 0.00 81 1014.6
20260503035909 36 210 1.0 12.0 0.00 0.00 0.00 81 1014.7
20260503035409 36 263 1.0 12.0 0.00 0.00 0.00 81 1014.6
20260503034909 36 245 1.0 12.0 0.00 0.00 0.00 81 1015.4
20260503034409 36 261 1.0 12.0 0.00 0.00 0.00 81 1014.9
20260503033909 36 242 1.0 12.0 0.00 0.00 0.00 81 1014.9
20260503033409 36 224 1.0 12.0 0.00 0.00 0.00 81 1015.3
20260503032909 36 231 1.0 12.0 0.00 0.00 0.00 81 1015.3
20260503031854 36 258 1.0 12.0 0.00 0.00 0.00 81 1015.2
20260503030838 36 248 2.0 12.0 0.00 0.00 0.00 81 1014.8
20260503030338 36 229 1.0 12.0 0.00 0.00 0.00 81 1014.9
20260503025837 36 261 1.0 12.0 0.00 0.00 0.00 81 1015.8
20260503025336 36 252 2.0 12.0 0.00 0.00 0.00 80 1015.8
20260503024836 36 248 2.0 12.0 0.00 0.00 0.00 80 1016.0
20260503024336 36 237 1.0 12.0 0.00 0.00 0.00 80 1015.7
20260503023836 36 282 1.0 12.0 0.00 0.00 0.00 79 1016.0
20260503023335 36 23 1.0 12.0 0.00 0.00 0.00 78 1015.8
20260503022834 36 271 1.0 12.0 0.00 0.00 0.00 76 1016.0
20260503022333 36 275 1.0 12.0 0.00 0.00 0.00 75 1015.9
20260503021832 36 263 1.0 12.0 0.00 0.00 0.00 74 1016.2
20260503020816 37 266 1.0 12.0 0.00 0.00 0.00 73 1016.2
20260503020315 37 281 2.0 12.0 0.00 0.00 0.00 72 1016.3
20260503015815 36 266 2.0 12.0 0.00 0.00 0.00 73 1016.2
20260503015315 36 267 2.0 12.0 0.00 0.00 0.00 73 1016.3
20260503014814 36 266 2.0 12.0 0.00 0.00 0.00 73 1016.3
20260503014313 36 268 1.0 12.0 0.00 0.00 0.00 75 1016.4
20260503013812 36 286 1.0 12.0 0.00 0.00 0.00 77 1016.3
20260503013311 35 266 1.0 12.0 0.00 0.00 0.00 79 1016.2
20260503012810 35 267 1.0 12.0 0.00 0.00 0.00 81 1016.3
20260503012310 35 236 0.0 12.0 0.00 0.00 0.00 83 1016.1
20260503011810 35 236 0.0 12.0 0.00 0.00 0.00 84 1016.1
20260503011310 35 232 0.0 12.0 0.00 0.00 0.00 83 1016.2
20260503010809 35 227 0.0 12.0 0.00 0.00 0.00 83 1016.2
20260503010309 36 230 0.0 12.0 0.00 0.00 0.00 82 1016.1
20260503004738 36 269 0.0 12.0 0.00 0.00 0.00 79 1016.2
20260503004237 36 250 0.0 12.0 0.00 0.00 0.00 78 1016.2
20260503003736 37 267 1.0 12.0 0.00 0.00 0.00 77 1016.0
20260503003236 37 234 1.0 12.0 0.00 0.00 0.00 77 1015.8
20260503002220 37 261 2.0 12.0 0.00 0.00 0.00 75 1016.2
20260503001719 38 262 1.0 12.0 0.00 0.00 0.00 74 1016.1
20260503001218 38 262 2.0 12.0 0.00 0.00 0.00 74 1016.2
20260503000717 39 229 1.0 12.0 0.00 0.00 0.00 73 1016.0
20260503000218 39 259 1.0 12.0 0.00 0.00 0.00 72 1016.1
20260502235200 39 268 2.0 12.0 0.00 0.00 0.00 71 1016.2
20260502234659 39 256 3.0 12.0 0.00 0.00 0.00 73 1016.5
20260502234158 39 266 2.0 12.0 0.00 0.00 0.00 72 1016.2
20260502233657 40 260 3.0 12.0 0.00 0.00 0.00 72 1016.4
20260502233157 40 284 2.0 13.0 0.00 0.00 0.00 71 1016.4
20260502232657 40 230 2.0 13.0 0.00 0.00 0.00 71 1016.1
20260502232156 40 264 3.0 13.0 0.00 0.00 0.00 70 1016.1
20260502231656 40 249 4.0 13.0 0.00 0.00 0.00 69 1016.3
20260502230640 41 271 3.0 13.0 0.00 0.00 0.00 69 1016.3
20260502230139 41 250 2.0 12.0 0.00 0.00 0.00 71 1016.4
20260502225639 41 288 2.0 12.0 0.00 0.00 0.00 72 1016.5
20260502225139 41 269 2.0 12.0 0.00 0.00 0.00 72 1016.2
20260502224639 41 250 4.0 12.0 0.00 0.00 0.00 70 1016.3
20260502224138 41 277 2.0 12.0 0.00 0.00 0.00 71 1016.7
20260502223121 41 259 3.0 12.0 0.00 0.00 0.00 71 1016.7
20260502222620 41 236 2.0 12.0 0.00 0.00 0.00 72 1016.9
20260502222120 41 251 3.0 12.0 0.00 0.00 0.00 72 1016.5
20260502221620 41 246 4.0 12.0 0.00 0.00 0.00 70 1016.7
20260502221119 41 249 4.0 12.0 0.00 0.00 0.00 70 1016.6
20260502220618 41 262 3.0 13.0 0.00 0.00 0.00 71 1016.2